Regional Weather Roundup
Issued by NWS State College, PA

Home | Current Version | Previous Version | Text Only | Print | Product List | Glossary On
Versions: 1 2 3 4 5 6 7 8 9 10 11 12 13 14 15 16 17 18 19 20 21 22 23 24 25 26 27 28 29 30 31 32 33 34 35 36 37 38 39 40 41 42 43 44 45 46 47 48 49 50
000
ASUS41 KCTP 202303
RWRCTP

REGIONAL WEATHER ROUNDUP
NATIONAL WEATHER SERVICE STATE COLLEGE PA
700 PM EDT SAT SEP 20 2014

Note: "fair" indicates few or no clouds below 12,000 feet with no
significant weather and/or obstructions to visibility.

* = STATION THAT DOES NOT REPORT PRECIPITATION /E.G. RAIN...SNOW...ETC/
    THUNDER OR FOG.

PAZ002>004-007>009-013>016-020>023-029>032-210000-
WESTERN PENNSYLVANIA

CITY           SKY/WX    TMP DP  RH WIND       PRES   REMARKS
ERIE           CLEAR     75  59  57 S13G25    29.87F
MEADVILLE      PTCLDY    71  60  68 S9        29.93F
FRANKLIN*      PTCLDY    70  59  68 S12       29.97F
NEW CASTLE     NOT AVBL
BEAVER COUNTY  NOT AVBL
BUTLER*        CLEAR     73  61  64 SW7G16    29.99F
PITTSBURGH INT PTCLDY    76  61  59 S9        29.96F
PITTSBURGH     CLEAR     74  59  59 S9        29.97F
INDIANA*       CLEAR     73  61  64 SW6       30.03F
LATROBE        PTCLDY    75  63  64 S6        30.00F
WASHINGTON CO* CLEAR     73  61  64 S6        29.99F
$$

PAZ004>006-010>012-017>019-024>028-033>037-041-042-045-046-049>053-210000-
CENTRAL PENNSYLVANIA

CITY           SKY/WX    TMP DP  RH WIND       PRES   REMARKS
BRADFORD       CLEAR     69  58  67 S6G17     29.98F
DUBOIS         PTCLDY    70  59  68 S6        29.98F
CLEARFIELD     MOCLDY    72  59  63 VRB5      30.01F
JOHNSTOWN      MOCLDY    71  55  56 S12       30.05F
ALTOONA        MOCLDY    72  57  59 S10       30.03F
STATE COLLEGE  PTCLDY    70  59  68 S7        30.02F
WILLIAMSPORT   CLEAR     74  57  55 S15G24    30.00F
SELINSGROVE    CLEAR     73  58  59 S8        30.03F
FT INDIANTOWN  CLEAR     72  56  57 S7        30.06F
CAPITAL CITY   CLEAR     75  55  49 SE10      30.05F
HARRISBURG     PTCLDY    75  55  49 S12       30.04F
YORK           CLEAR     71  56  58 SE6       30.06F
$$

PAZ038>040-043-044-047-048-054-055-060>062-067>071-210000-
EASTERN PENNSYLVANIA

CITY           SKY/WX    TMP DP  RH WIND       PRES   REMARKS
SCRANTON       PTCLDY    70  56  61 S3        30.06F
MOUNT POCONO   PTCLDY    64  55  72 S6        30.12F
ALLENTOWN      CLEAR     73  57  57 S7        30.09S
QUAKERTOWN*    CLEAR     72  59  64 S8        30.10F
READING        CLEAR     73  57  57 S8        30.08S
LANCASTER      CLEAR     72  59  63 SE9       30.08S
COATESVILLE    CLEAR     68  57  68 S3        30.11F
POTTSTOWN      CLEAR     72  59  63 VRB5      30.11F
BLUE BELL      CLEAR     72  59  64 CALM      30.10F
DOYLESTOWN     CLEAR     69  59  70 VRB7      30.10F
WILLOW GROVE   NOT AVBL
NORTH PHILA    CLEAR     73  56  54 SE5       30.12F
PHILADELPHIA   PTCLDY    73  57  57 SE7       30.10F
$$


USA.gov is the U.S. government's official web portal to all federal, state and local government web resources and services.